Flag for Sweden Weather past 2 weeks in Södertälje, Sweden

Now
54 °F

Cool.


Feels Like: 54 °F
Forecast: 55 / 69 °F
Wind: 1 mph from North

Location: Stockholm Bromma Airport

Current Time: Sep 3, 2014 at 12:19:43 AM

Latest Report: Sep 2, 2014 at 11:50 PM


Visibility: N/A

Pressure: 30.30 "Hg

Humidity: 94%

Dew point: 52 °F

Location of SödertäljeLocation

Historic Weather in Södertälje — Graph

°F

Södertälje temperature yesterday

Maximum temperature yesterday: 66 °F (at 2:20 PM)
Minimum temperature yesterday: 43 °F (at 3:50 AM)
Average temperature yesterday: 56 °F

Past Weeks' High & Low Weather Summary

 TemperatureHumidityPressure
High66 °F (Aug 22, 2:20 PM)100% (Aug 19, 3:20 AM)30.27 "Hg (Aug 19, 3:20 AM)
Low43 °F (Aug 31, 5:20 AM)46% (Aug 27, 2:50 PM)29.30 "Hg (Aug 18, 11:20 PM)
Average57 °F80%29.80 "Hg
* Reported Aug 18 11:20 PM — Sep 2 11:20 PM, Södertälje, Weather by CustomWeather, © 2014

Note: Actual official high and low records may vary slightly from our data, if they occured in-between our weather recording intervals... More about our weather records

Advertising

Södertälje weather history for previous 24 hours

 ConditionsComfort  
Time TempWeatherWind HumidityBarometerVisibility
11:20 PM
Sep 2
54 °FCool.5 mph94%30.27 "HgN/A
10:50 PM54 °FCool.5 mph94%30.27 "HgN/A
10:20 PM55 °FCool.5 mph88%30.27 "HgN/A
9:50 PM57 °FClear.3 mph82%30.27 "Hg10 mi
9:20 PM57 °FPassing clouds.3 mph82%30.27 "HgN/A
8:50 PM59 °FClear.5 mph77%30.27 "Hg10 mi
8:20 PM59 °FSunny.6 mph77%30.24 "Hg10 mi
7:50 PM59 °FSunny.7 mph77%30.24 "Hg10 mi
7:20 PM61 °FSunny.7 mph72%30.24 "Hg10 mi
6:50 PM63 °FSunny.7 mph68%30.24 "Hg10 mi
6:20 PM64 °FSunny.8 mph68%30.21 "Hg10 mi
5:50 PM64 °FSunny.7 mph68%30.24 "Hg10 mi
5:20 PM64 °FSunny.9 mph64%30.24 "Hg10 mi
4:50 PM64 °FPassing clouds.10 mph64%30.24 "HgN/A
4:20 PM64 °FPartly sunny.9 mph68%30.24 "HgN/A
3:20 PM64 °FScattered clouds.8 mph64%30.24 "HgN/A
2:50 PM66 °FScattered clouds.8 mph64%30.24 "HgN/A
2:20 PM66 °FScattered clouds.9 mph60%30.24 "HgN/A
1:50 PM64 °FBroken clouds.9 mph64%30.24 "HgN/A
1:20 PM64 °FPassing clouds.9 mph64%30.24 "HgN/A
12:50 PM64 °FPassing clouds.8 mph64%30.24 "HgN/A
12:20 PM63 °FSunny.8 mph68%30.24 "Hg10 mi
11:50 AM63 °FPassing clouds.7 mph64%30.24 "HgN/A
11:20 AM63 °FPassing clouds.7 mph64%30.24 "HgN/A
10:50 AM61 °FPassing clouds.7 mph68%30.24 "HgN/A
10:20 AM61 °FPassing clouds.7 mph72%30.24 "HgN/A
9:50 AM59 °FSunny.7 mph77%30.24 "Hg10 mi
9:20 AM59 °FSunny.7 mph82%30.24 "Hg10 mi
8:50 AM57 °FSunny.6 mph82%30.24 "Hg10 mi
8:20 AM57 °FPassing clouds.5 mph88%30.24 "HgN/A
7:50 AM54 °FSunny.3 mph94%30.24 "Hg10 mi
7:20 AM48 °FSunny.2 mph100%30.24 "Hg10 mi
6:50 AM46 °FSunny.No wind100%30.24 "Hg10 mi
6:20 AM43 °FFog.No wind100%30.24 "HgN/A
5:50 AM43 °FFog.2 mph100%30.24 "HgN/A
5:20 AM45 °FLight fog.2 mph93%30.24 "Hg1 mi
4:50 AM43 °FLight fog.No wind100%30.24 "Hg0 mi
4:20 AM43 °FLight fog.No wind100%30.24 "Hg0 mi
3:50 AM43 °FLight fog.No wind100%30.24 "Hg1 mi
3:20 AM45 °FLight fog.No wind100%30.24 "Hg0 mi
2:50 AM45 °FLight fog.No wind100%30.24 "Hg0 mi
2:20 AM45 °FLight fog.No wind100%30.24 "Hg1 mi
1:50 AM46 °FFog.No wind100%30.24 "Hg1 mi
1:20 AM45 °FFog.No wind100%30.24 "Hg4 mi
12:50 AM46 °FCool.No wind100%30.24 "Hg4 mi
12:20 AM46 °FFog.No wind100%30.24 "Hg6 mi
Weather by CustomWeather, © 2014

See weather overviewHow to use our weather pages